Location: Breungeshain
(50.5000°N, 9.2000°E)
Time: 09:48:42
(UTC+00:00)

ISS - Pass Details

Date: 23 May 2017
Orbit: 402 x 409 km, 51.6° (Epoch: 24 May)

Event Time Altitude Azimuth Distance (km) Brightness Sun altitude
Rises 20:43:37 0° 211° (SSW) 2,322 -0.2 -10.9°
Reaches altitude 10° 20:46:00 10° 195° (SSW) 1,465 -1.4 -11.1°
Maximum altitude 20:48:34 21° 144° (SE) 972 -2.6 -11.3°
Drops below altitude 10° 20:51:08 10° 92° (E) 1,469 -1.4 -11.6°
Sets 20:53:31 0° 76° (ENE) 2,332 -0.2 -11.8°
